Regional Weather Roundup
Issued by NWS

Home | Current Version | Previous Version | Text Only | Print | Product List | Glossary Off
Versions: 1 2 3 4 5 6 7 8 9 10 11 12 13 14 15 16 17 18 19 20 21 22 23 24 25 26 27 28 29 30 31 32 33 34 35 36 37 38 39 40 41 42 43 44 45 46 47 48 49 50

241
ASUS43 KOAX 182202
RWRNE

WEATHER ROUNDUP FOR NEBRASKA
NATIONAL WEATHER SERVICE OMAHA NE
400 PM CST SUN FEB 18 2018

NOTES: SATELLITE DATA IS BEING USED TO AUGMENT CLOUD COVER ABOVE
       12000 FEET.
       "FAIR" INDICATES FEW OR NO CLOUDS BELOW 12,000 FEET WITH NO
       SIGNIFICANT WEATHER AND/OR OBSTRUCTIONS TO VISIBILITY.


NEZ001>004-019>022-054>056-182300-
NEBRASKA PANHANDLE

CITY           SKY/WX    TMP DP  RH WIND       PRES   REMARKS
SCOTTSBLUFF    MOSUNNY   47  29  49 NE24G32   29.48R
ALLIANCE       CLOUDY    30  25  81 NE24G36   29.53R WCI  16
CHADRON        CLOUDY    21  17  84 NE24G31   29.66R WCI   4
GORDON         CLOUDY    22  18  85 N24G32    29.60S WCI   6
KIMBALL        MOSUNNY   63  13  14 W3G10     29.41F
SIDNEY         MOSUNNY   55  26  32 NE23G29   29.42R
$$

NEZ057>060-069>072-079>082-182300-
SOUTHWEST NEBRASKA

CITY           SKY/WX    TMP DP  RH WIND       PRES   REMARKS
NORTH PLATTE   SUNNY     55  32  41 NE9       29.48R
IMPERIAL       SUNNY     61  32  33 E15       29.41F
LEXINGTON      SUNNY     59  31  35 CALM      29.47S
MCCOOK         SUNNY     63  32  31 S8        29.43F
OGALLALA       MOSUNNY   53  27  36 NE20G25   29.45R
$$

NEZ005>010-023>029-035>040-094-182300-
NORTH CENTRAL NEBRASKA

CITY           SKY/WX    TMP DP  RH WIND       PRES   REMARKS
VALENTINE      CLOUDY    27  20  75 N25G32    29.64R WCI  12
AINSWORTH      CLOUDY    29  26  87 N22G31    29.61S WCI  16
BROKEN BOW     MOSUNNY   50  32  50 N15       29.51R
O`NEILL        PTSUNNY   40  30  68 NW23      29.59R WCI  29
ORD            MOSUNNY   55  31  39 W3        29.51R
THEDFORD       PTSUNNY   35  29  79 N14G24    29.57R WCI  25
$$

NEZ041-046>049-061>064-073>077-083>087-182300-
SOUTH CENTRAL NEBRASKA

CITY           SKY/WX    TMP DP  RH WIND       PRES   REMARKS
GRAND ISLAND   SUNNY     59  34  39 SW17G26   29.50R
AURORA         CLOUDY    61  33  34 SW20G29   29.49S
HASTINGS       CLOUDY    61  32  33 S14G25    29.48F
HEBRON         CLOUDY    60  40  48 S25G31    29.52F
HOLDREGE       SUNNY     62  32  32 S15G30    29.45F
KEARNEY        SUNNY     60  33  36 S15       29.48R
YORK           CLOUDY    59  37  44 S21G26    29.51S
$$

NEZ011>018-030>034-042>045-182300-
NORTHEAST NEBRASKA

CITY           SKY/WX    TMP DP  RH WIND       PRES   REMARKS
NORFOLK        SUNNY     51  33  50 S9        29.52F
ALBION         SUNNY     53  33  46 W5        29.53R
BLAIR          CLOUDY    55  36  47 S15G25    29.57R
COLUMBUS       CLOUDY    54  36  50 SW9       29.53F
FREMONT        CLOUDY    54  35  48 S10       29.57R
TEKAMAH        CLOUDY    52  38  58 S13       29.57R
WAYNE          SUNNY     49  33  54 SW7       29.54F
$$

NEZ050>053-065>068-078-088>093-182300-
SOUTHEAST NEBRASKA

CITY           SKY/WX    TMP DP  RH WIND       PRES   REMARKS
LINCOLN        CLOUDY    57  37  47 S20G30    29.57R
OMAHA EPPLEY   CLOUDY    56  33  42 S23       29.57F
BEATRICE       CLOUDY    57  40  53 S24G36    29.57S
FALLS CITY     CLOUDY    57  32  38 S18G36    29.63F
NEBRASKA CITY  CLOUDY    56  35  44 S26G37    29.59F
PLATTSMOUTH    CLOUDY    54  34  46 S17G23    29.60S
$$

NEZ044-045-051>053-067-182300-
OMAHA AREA

CITY           SKY/WX    TMP DP  RH WIND       PRES   REMARKS
OMAHA EPPLEY   CLOUDY    56  33  42 S23       29.57F
BLAIR          CLOUDY    55  36  47 S15G25    29.57R
FREMONT        CLOUDY    54  35  48 S10       29.57R
MILLARD        CLOUDY    57  36  44 S15G21    29.58S
OFFUTT AFB     CLOUDY    55  33  44 S16G23    29.59R
PLATTSMOUTH    CLOUDY    54  34  46 S17G23    29.60S
WAHOO          FAIR      55  36  48 S17       29.56S
$$




USA.gov is the U.S. government's official web portal to all federal, state and local government web resources and services.